Back to catalog

ICEYE-X72

AliveScienceSSO
NORAD 68504·PAYLOAD·🇫🇮 Finland

Launched Mar 30, 2026 from Vandenberg Space Force Base

Loading…

Next Passes (next 24 hours)

TLE

FreshSource: Space-Track

Epoch: Sep 14, 2026, 08:15 UTC

1 68504U 26067CS  26257.34402417  .00002100  00000-0  17964-3 0  9994
2 68504  97.7700 215.0389 0002835  53.9453 306.2032 14.98693336 25061

Track ICEYE-X72 in real time with AllMySat

Download on the App Store